Observations
| Time | Sensor | AQI | SAQ | Temp °C | Hum % | Pres Pa | CO μg/m³ | H₂S μg/m³ | NO μg/m³ | NO₂ μg/m³ | O₃ μg/m³ | SO₂ μg/m³ | CO₂e PPM | VOC PPM | PM1 μg/m³ | PM2.5 μg/m³ | PM4 μg/m³ | PM10 μg/m³ | TPS µm |
|---|---|---|---|---|---|---|---|---|---|---|---|---|---|---|---|---|---|---|---|
| Tuesday 11 August 2026 | |||||||||||||||||||
| 14:08 | Trim Patrick St | 2 | 33.3 | 25 | 69,485 | 0 | 0 | 0.81 | 12.78 | 84.49 | 16.7 | 2 | 7.97 | 8.77 | |||||
| 14:07 | Trim Patrick St | 2 | 33.4 | 25 | 69,497 | 0 | 2.37 | 0.83 | 15.51 | 150.62 | 20.31 | 2 | 8.01 | 8.81 | |||||
| 14:06 | Trim Patrick St | 2 | 33.3 | 24 | 69,483 | 0 | 0 | 0.88 | 16.63 | 110.24 | 15.72 | 2 | 8.84 | 9.72 | |||||
| 14:05 | Trim Patrick St | 2 | 33.3 | 25 | 69,467 | 0 | 0 | 0.81 | 11.44 | 93.77 | 18.27 | 2 | 7.98 | 8.78 | |||||
| 14:04 | Trim Patrick St | 2 | 33.3 | 24 | 69,469 | 0 | 0 | 0.81 | 13.51 | 110.93 | 17.22 | 2 | 8.03 | 8.83 | |||||
| 14:03 | Trim Patrick St | 2 | 33.3 | 25 | 69,479 | 0 | 0 | 0.69 | 13.2 | 117.79 | 18.34 | 2.86 | 9.62 | 10.58 | |||||
| 14:02 | Trim Patrick St | 2 | 33.3 | 24 | 69,493 | 0 | 0 | 0.66 | 12.55 | 95.18 | 16.18 | 2 | 8.03 | 8.83 | |||||
| 14:01 | Trim Patrick St | 2 | 33.3 | 24 | 69,513 | 0 | 0 | 0.66 | 12.31 | 80.62 | 16.1 | 2 | 8.06 | 8.87 | |||||
| 14:00 | Trim Patrick St | 2 | 33.3 | 24 | 69,509 | 0 | 0 | 0.64 | 9.28 | 59.1 | 14.74 | 2.86 | 8.85 | 9.73 | |||||
| 14:00 | Trim Market St | 2 | 40.7 | 17 | 67,116 | 0 | 0 | 0 | 15.61 | 104.65 | 4.01 | 0 | 3.31 | 3.64 | |||||
| 13:59 | Trim Patrick St | 2 | 33.2 | 25 | 69,503 | 0 | 0 | 0.64 | 10.53 | 72.58 | 15.67 | 2 | 8 | 8.8 | |||||
| 13:59 | Trim Market St | 2 | 40.6 | 17 | 67,102 | 0 | 0 | 0 | 15.28 | 84.22 | 2.83 | 0 | 3.88 | 4.26 | |||||
| 13:58 | Trim Patrick St | 2 | 33.1 | 25 | 69,487 | 0 | 0 | 0.7 | 12.94 | 96.67 | 17.19 | 2.86 | 8.82 | 9.7 | |||||
| 13:58 | Trim Market St | 2 | 40.4 | 17 | 67,084 | 0 | 0 | 0 | 15.31 | 79.03 | 3.02 | 0 | 3.31 | 3.64 | |||||
| 13:57 | Trim Patrick St | 2 | 33.1 | 25 | 69,499 | 0 | 1.89 | 0.68 | 25.43 | 111.03 | 17.65 | 2 | 7.97 | 8.77 | |||||
| 13:57 | Trim Market St | 2 | 40.3 | 17 | 67,065 | 0 | 0 | 0 | 49.82 | 48.31 | 1.39 | 0.71 | 4.42 | 4.7 | |||||
| 13:56 | Trim Patrick St | 2 | 33 | 26 | 69,483 | 0 | 0 | 0.69 | 12.87 | 83.84 | 15.24 | 2 | 7.95 | 8.74 | |||||
| 13:56 | Trim Market St | 2 | 40.1 | 17 | 67,037 | 0 | 0 | 0 | 15.45 | 150.71 | 4.38 | 0.71 | 4.43 | 4.87 | |||||
| 13:55 | Trim Patrick St | 2 | 33 | 26 | 69,469 | 0 | 0 | 0.64 | 11.62 | 83.35 | 16.24 | 2 | 8.75 | 9.62 | |||||
| 13:55 | Trim Market St | 2 | 40 | 17 | 67,035 | 0 | 0 | 0.07 | 15.46 | 78.29 | 2.53 | 0.71 | 4.43 | 4.88 | |||||